Weather History for KVYS - November, 2013

Change the Weather History Date:

Wednesday, November 6, 2013

  Actual Average Record
Temperature  
Mean Temperature 46 °F -  
Max Temperature 57 °F 51 °F - (-1)
Min Temperature 34 °F 32 °F - (-1)
Degree Days  
Heating Degree Days 20    
Moisture  
Dew Point 43 °F    
Average Humidity 89    
Maximum Humidity 95    
Minimum Humidity 79    
Precipitation  
Precipitation 0.58 in - - ()
Sea Level Pressure  
Sea Level Pressure 29.98 in    
Wind  
Wind Speed 15 mph (West)    
Max Wind Speed 23 mph    
Max Gust Speed 29 mph    
Visibility 8 miles    
Events Rain    
Averages and records for this station are not official NWS values.
T = Trace of Precipitation, MM = Missing Value Source: NWS Daily Summary

Daily Weather History Graph

Daily Weather History Graph

Search for Another Location

Airport or City:

Trip Planner

Search our weather history database for the weather conditions in past years. The results will help you decide how hot, cold, wet, or windy it might be!

Date:

Astronomy

Nov. 06, 2013 Rise Set
Actual Time 6:34 AM CST 4:45 PM CST
Civil Twilight 6:05 AM CST 5:14 PM CST
Nautical Twilight 5:32 AM CST 5:47 PM CST
Astronomical Twilight 5:00 AM CST 6:19 PM CST
Moon 9:50 AM CST (11/6) 7:49 PM CST (11/6)
Length of Visible Light 11h 09m
Length of Day
10h 11m
Waxing Crescent, 14% of the Moon is Illuminated
Nov 6
Waxing Crescent
Nov 9
First Quarter
Nov 17
Full
Nov 25
Last Quarter
Dec 2
New

Hourly Weather History & Observations

Time (CST) Temp. Windchill Dew Point Humidity Pressure Visibility Wind Dir Wind Speed Gust Speed Precip Events Conditions
12:35 AM 53.2 °F - 51.1 °F 92% 29.93 in 5.0 mi SSW 17.3 mph 20.7 mph 0.03 in Rain Light Rain
12:55 AM 53.2 °F - 51.1 °F 92% 29.91 in 10.0 mi South 16.1 mph - 0.04 in Rain Rain
1:15 AM 53.6 °F - 51.1 °F 91% 29.90 in 10.0 mi SSW 15.0 mph 20.7 mph N/A   Overcast
1:35 AM 54.0 °F - 51.4 °F 91% 29.90 in 10.0 mi SSW 17.3 mph - N/A Rain Light Rain
1:55 AM 54.7 °F - 52.2 °F 91% 29.88 in 10.0 mi SSW 18.4 mph - N/A   Overcast
2:15 AM 54.7 °F - 52.3 °F 92% 29.88 in 7.0 mi SSW 18.4 mph 24.2 mph N/A Rain Rain
2:35 AM 54.7 °F - 52.7 °F 93% 29.87 in 10.0 mi SSW 15.0 mph 21.9 mph N/A   Overcast
2:55 AM 54.7 °F - 52.7 °F 93% 29.86 in 10.0 mi SSW 15.0 mph - N/A   Overcast
3:15 AM 54.9 °F - 52.9 °F 93% 29.85 in 7.0 mi South 15.0 mph 20.7 mph 0.03 in Rain Light Rain
3:35 AM 55.0 °F - 53.2 °F 94% 29.85 in 4.0 mi SSW 13.8 mph - 0.10 in Rain Rain
3:55 AM 55.0 °F - 53.6 °F 95% 29.85 in 7.0 mi SSW 13.8 mph 21.9 mph 0.13 in Rain Rain
4:15 AM 55.4 °F - 53.6 °F 94% 29.86 in 5.0 mi SSW 16.1 mph - 0.05 in Rain Heavy Rain
4:35 AM 55.4 °F - 53.8 °F 94% 29.85 in 4.0 mi SSW 16.1 mph 23.0 mph 0.15 in Rain Rain
4:55 AM 55.4 °F - 54.0 °F 95% 29.84 in 7.0 mi SSW 15.0 mph 21.9 mph 0.18 in Rain Light Rain
5:15 AM 56.3 °F - 54.5 °F 94% 29.83 in 10.0 mi SSW 19.6 mph 24.2 mph N/A Rain Light Rain
5:35 AM 56.3 °F - 54.3 °F 93% 29.83 in 10.0 mi SSW 18.4 mph 24.2 mph N/A   Overcast
5:55 AM 56.3 °F - 54.5 °F 94% 29.83 in 5.0 mi SSW 18.4 mph - 0.03 in Rain Light Rain
6:15 AM 56.3 °F - 54.5 °F 94% 29.82 in 5.0 mi SSW 17.3 mph - 0.04 in Rain Rain
6:35 AM 56.3 °F - 54.5 °F 94% 29.83 in 7.0 mi SSW 17.3 mph 20.7 mph 0.09 in Rain Rain
6:55 AM 56.3 °F - 54.5 °F 94% 29.83 in 7.0 mi SSW 16.1 mph 21.9 mph 0.12 in Rain Rain
7:15 AM 56.3 °F - 54.7 °F 94% 29.83 in 7.0 mi SSW 15.0 mph - 0.03 in Rain Rain
7:35 AM 56.3 °F - 54.7 °F 94% 29.82 in 7.0 mi SSW 17.3 mph 21.9 mph 0.06 in Rain Rain
7:55 AM 56.3 °F - 54.7 °F 94% 29.83 in 7.0 mi SSW 18.4 mph 23.0 mph 0.07 in   Drizzle
8:15 AM 56.5 °F - 54.9 °F 94% 29.83 in 10.0 mi SSW 16.1 mph 24.2 mph N/A Rain Light Rain
8:35 AM 56.8 °F - 55.4 °F 95% 29.82 in 10.0 mi SW 15.0 mph - 0.01 in   Light Drizzle
8:55 AM 57.4 °F - 55.8 °F 94% 29.83 in 10.0 mi SW 17.3 mph 23.0 mph 0.01 in   Overcast
9:15 AM 51.4 °F - 48.4 °F 89% 29.83 in 10.0 mi WNW 16.1 mph 28.8 mph N/A   Overcast
9:35 AM 48.6 °F - 46.8 °F 93% 29.86 in 10.0 mi West 17.3 mph 24.2 mph N/A   Overcast
9:55 AM 47.1 °F - 45.3 °F 93% 29.87 in 3.0 mi West 18.4 mph 26.5 mph N/A   Overcast
10:15 AM 45.1 °F 38.4 °F 43.7 °F 95% 29.90 in 2.0 mi West 15.0 mph 21.9 mph N/A Rain Light Rain
10:35 AM 44.6 °F 37.2 °F 43.0 °F 94% 29.91 in 4.0 mi West 17.3 mph 23.0 mph N/A   Light Drizzle
10:55 AM 43.5 °F 36.4 °F 41.7 °F 93% 29.93 in 5.0 mi WNW 15.0 mph 24.2 mph N/A   Overcast
11:15 AM 43.0 °F 35.4 °F 41.4 °F 94% 29.93 in 4.0 mi WNW 16.1 mph 20.7 mph N/A   Light Drizzle
11:35 AM 42.8 °F 34.3 °F 41.0 °F 93% 29.93 in 7.0 mi WNW 19.6 mph 25.3 mph N/A   Overcast
11:55 AM 43.2 °F 34.7 °F 41.0 °F 92% 29.93 in 10.0 mi WNW 19.6 mph 27.6 mph N/A   Overcast
12:15 PM 42.8 °F 34.0 °F 41.0 °F 93% 29.94 in 3.0 mi WNW 20.7 mph 25.3 mph N/A   Overcast
12:35 PM 42.4 °F 33.1 °F 40.5 °F 93% 29.95 in 10.0 mi NW 23.0 mph 27.6 mph N/A   Overcast
12:55 PM 42.6 °F 34.0 °F 40.3 °F 91% 29.97 in 7.0 mi WNW 19.6 mph 24.2 mph N/A   Overcast
1:15 PM 42.1 °F 33.1 °F 40.1 °F 93% 29.98 in 2.0 mi WNW 20.7 mph 24.2 mph N/A   Overcast
1:35 PM 42.1 °F 33.6 °F 39.6 °F 91% 29.99 in 10.0 mi NW 18.4 mph - N/A   Overcast
1:55 PM 42.1 °F 34.2 °F 39.0 °F 89% 30.00 in 10.0 mi NW 16.1 mph 24.2 mph N/A   Overcast
2:15 PM 42.1 °F 34.9 °F 38.7 °F 88% 30.02 in 10.0 mi WNW 13.8 mph 21.9 mph N/A   Overcast
2:35 PM 42.6 °F 35.2 °F 38.7 °F 86% 30.03 in 10.0 mi NW 15.0 mph - N/A   Overcast
2:55 PM 43.3 °F 35.8 °F 38.5 °F 83% 30.03 in 10.0 mi NW 16.1 mph 24.2 mph N/A   Overcast
3:15 PM 43.3 °F 36.1 °F 38.3 °F 82% 30.05 in 10.0 mi NW 15.0 mph 20.7 mph N/A   Overcast
3:35 PM 43.0 °F 34.8 °F 37.8 °F 82% 30.05 in 10.0 mi NW 18.4 mph - N/A   Overcast
3:55 PM 43.2 °F 35.9 °F 37.9 °F 82% 30.06 in 10.0 mi NW 15.0 mph 18.4 mph N/A   Overcast
4:15 PM 43.0 °F 37.7 °F 37.6 °F 81% 30.07 in 10.0 mi WNW 9.2 mph - N/A   Scattered Clouds
4:35 PM 42.4 °F 38.1 °F 37.4 °F 82% 30.08 in 10.0 mi WNW 6.9 mph - N/A   Clear
4:55 PM 41.9 °F 37.5 °F 37.4 °F 84% 30.08 in 10.0 mi WNW 6.9 mph - N/A   Clear
5:15 PM 39.7 °F 34.9 °F 36.0 °F 86% 30.09 in 10.0 mi West 6.9 mph - N/A   Scattered Clouds
5:35 PM 40.5 °F 35.8 °F 37.0 °F 88% 30.10 in 10.0 mi West 6.9 mph - N/A   Mostly Cloudy
5:55 PM 39.6 °F 33.5 °F 36.5 °F 89% 30.11 in 10.0 mi West 9.2 mph - N/A   Scattered Clouds
6:15 PM 40.1 °F 33.6 °F 36.5 °F 87% 30.12 in 10.0 mi West 10.4 mph - N/A   Clear
6:35 PM 39.6 °F 33.5 °F 36.5 °F 89% 30.13 in 10.0 mi West 9.2 mph - N/A   Clear
6:55 PM 39.6 °F 33.0 °F 36.0 °F 87% 30.14 in 10.0 mi West 10.4 mph - N/A   Clear
7:15 PM 39.6 °F 33.5 °F 35.2 °F 85% 30.15 in 10.0 mi West 9.2 mph - N/A   Clear
7:35 PM 38.5 °F 32.7 °F 33.4 °F 82% 30.15 in 10.0 mi WNW 8.1 mph - N/A   Clear
7:55 PM 38.3 °F 31.4 °F 32.4 °F 79% 30.15 in 10.0 mi WNW 10.4 mph - N/A   Clear
8:15 PM 37.4 °F 31.4 °F 31.8 °F 80% 30.15 in 10.0 mi WNW 8.1 mph - N/A   Clear
8:35 PM 36.7 °F 30.5 °F 31.6 °F 82% 30.16 in 10.0 mi WNW 8.1 mph - N/A   Clear
8:55 PM 36.1 °F 29.3 °F 31.1 °F 82% 30.16 in 10.0 mi WNW 9.2 mph - N/A   Clear
9:15 PM 35.6 °F 29.2 °F 30.7 °F 82% 30.17 in 10.0 mi WNW 8.1 mph - N/A   Clear
9:35 PM 35.4 °F 29.0 °F 30.6 °F 82% 30.18 in 10.0 mi WNW 8.1 mph - N/A   Clear
9:55 PM 35.1 °F 28.6 °F 30.2 °F 82% 30.18 in 10.0 mi WNW 8.1 mph - N/A   Clear
10:15 PM 35.2 °F 27.6 °F 30.0 °F 81% 30.19 in 10.0 mi WNW 10.4 mph - N/A   Clear
10:35 PM 35.1 °F 27.9 °F 29.7 °F 81% 30.19 in 10.0 mi WNW 9.2 mph - N/A   Clear
10:55 PM 34.3 °F 27.0 °F 29.5 °F 82% 30.20 in 10.0 mi WNW 9.2 mph - N/A   Clear
11:15 PM 34.3 °F 26.5 °F 29.3 °F 82% 30.20 in 10.0 mi WNW 10.4 mph - N/A   Clear
11:35 PM 34.3 °F 27.0 °F 29.8 °F 84% 30.21 in 10.0 mi WNW 9.2 mph - N/A   Clear
11:55 PM 34.3 °F 27.0 °F 29.8 °F 84% 30.21 in 10.0 mi WNW 9.2 mph - N/A   Clear